Starlink 35080

operational
NORAD ID: 65437 Int'l Des: 2025-194 Owner: SPXS Country: US Constellation: starlink
LEOCIRCULARRETROGRADE

Über Starlink 35080

Beschreibung wird geladen...

Live-Position

3D-Globus wird geladen...

Nächste Überflüge

Höhenverlauf

Altitude vs Time

uPlot chart will show altitude changes over time

Zweizeiliger Elementsatz

1 65437U 25194D 25278.53876681 .00030226 00000-0 77351-3 0 9993
2 65437 97.5993 131.0166 0002710 84.5441 275.6113 15.39366163 6276
Epoch: 5. Okt. 2025 • Age: 11 hours

Aktueller Status

Höhe 452.4 km
Geschwindigkeit 7.65 km/s
Subsatellitenpunkt 40.43°N, 109.69°E
Startdatum 3. Sept. 2025
Alter 32 days
Typ internet

Technische Details

Klassifizierung Payload
Masse 575.00 kg
Trockenmasse 530.00 kg
Gesamtmasse 575.00 kg
Länge 0.30 m
Durchmesser 4.10 m
Spannweite 29.00 m
Form Box + pan
Hersteller SPXS
Bus-Typ Starlink V2MO
Phasenstatus In Orbit
Besitzer/Staat SPXS/US

Große Konstellationen

Loading constellations...